Weather History for KMSP - November, 2012

Change the Weather History Date:

Sunday, November 18, 2012

  Actual Average Record
Temperature  
Mean Temperature 50 °F 32 °F  
Max Temperature 57 °F 40 °F 68 °F (1941)
Min Temperature 43 °F 25 °F -4 °F (1891)
Degree Days  
Heating Degree Days 15 33  
Month to date heating degree days 444 502  
Since 1 July heating degree days 1104 1182  
Cooling Degree Days 0 0  
Month to date cooling degree days 0 0  
Year to date cooling degree days 1131 753  
Moisture  
Dew Point 32 °F    
Average Humidity 50    
Maximum Humidity 62    
Minimum Humidity 38    
Precipitation  
Precipitation 0.00 in 0.06 in 0.82 in (1981)
Month to date precipitation 0.59 1.09  
Year to date precipitation 27.91 28.77  
Snow  
Snow 0.00 in 0.30 in 7.60 in (1957)
Month to date snowfall 0.2 4.4  
Since 1 July snowfall 0.2 5.0  
Since 1 September snowfall 0.2 5.0  
Snow Depth 0.00 in    
Sea Level Pressure  
Sea Level Pressure 30.14 in    
Wind  
Wind Speed 11 mph (SSE)    
Max Wind Speed 18 mph    
Max Gust Speed 23 mph    
Visibility 10 miles    
Events      
T = Trace of Precipitation, MM = Missing Value Source: NWS Daily Summary

Daily Weather History Graph

Daily Weather History Graph

Search for Another Location

Airport or City:

Trip Planner

Search our weather history database for the weather conditions in past years. The results will help you decide how hot, cold, wet, or windy it might be!

Date:

Astronomy

Nov. 18, 2012 Rise Set
Actual Time 7:14 AM CST 4:41 PM CST
Civil Twilight 6:42 AM CST 5:13 PM CST
Nautical Twilight 6:07 AM CST 5:48 PM CST
Astronomical Twilight 5:32 AM CST 6:23 PM CST
Moon 11:39 AM CST (11/18) 10:05 PM CST (11/18)
Length of Visible Light 10h 30m
Length of Day
9h 26m
Waxing Crescent, 30% of the Moon is Illuminated
Nov 18
Waxing Crescent
Nov 20
First Quarter
Nov 28
Full
Dec 6
Last Quarter
Dec 13
New

Hourly Weather History & Observations

Time (CST) Temp. Windchill Dew Point Humidity Pressure Visibility Wind Dir Wind Speed Gust Speed Precip Events Conditions
12:53 AM 48.9 °F - 33.1 °F 54% 30.22 in 10.0 mi SSE 12.7 mph 20.7 mph N/A   Overcast
1:53 AM 48.0 °F - 32.0 °F 54% 30.21 in 10.0 mi SSE 9.2 mph - N/A   Overcast
2:53 AM 46.9 °F - 32.0 °F 56% 30.20 in 10.0 mi SE 6.9 mph - N/A   Overcast
3:53 AM 46.9 °F - 32.0 °F 56% 30.18 in 10.0 mi SSE 10.4 mph - N/A   Overcast
4:53 AM 46.9 °F - 30.9 °F 54% 30.17 in 10.0 mi SSE 12.7 mph - N/A   Overcast
5:53 AM 45.0 °F 40.1 °F 30.9 °F 58% 30.17 in 10.0 mi SE 9.2 mph - N/A   Scattered Clouds
6:53 AM 44.1 °F 38.6 °F 30.0 °F 58% 30.17 in 9.0 mi SE 10.4 mph - N/A   Scattered Clouds
7:53 AM 43.0 °F 36.8 °F 30.0 °F 60% 30.15 in 8.0 mi SSE 11.5 mph - N/A   Scattered Clouds
8:53 AM 45.0 °F 38.5 °F 30.0 °F 56% 30.16 in 8.0 mi SSE 13.8 mph - N/A   Scattered Clouds
9:53 AM 46.0 °F 40.6 °F 30.9 °F 56% 30.16 in 7.0 mi SSE 11.5 mph - N/A   Mostly Cloudy
10:53 AM 50.0 °F - 30.9 °F 48% 30.15 in 8.0 mi SSE 13.8 mph 17.3 mph N/A   Scattered Clouds
11:53 AM 53.1 °F - 30.0 °F 41% 30.12 in 9.0 mi South 16.1 mph - N/A   Clear
12:53 PM 55.0 °F - 30.0 °F 38% 30.11 in 10.0 mi SSE 18.4 mph 23.0 mph N/A   Clear
1:53 PM 55.9 °F - 30.9 °F 39% 30.10 in 10.0 mi South 16.1 mph - N/A   Partly Cloudy
2:53 PM 55.9 °F - 32.0 °F 40% 30.08 in 10.0 mi SSE 8.1 mph - N/A   Scattered Clouds
3:53 PM 54.0 °F - 33.1 °F 45% 30.09 in 10.0 mi SE 6.9 mph - N/A   Mostly Cloudy
4:53 PM 54.0 °F - 33.1 °F 45% 30.10 in 10.0 mi SSE 8.1 mph - N/A   Scattered Clouds
5:53 PM 55.0 °F - 33.1 °F 43% 30.11 in 10.0 mi SSE 11.5 mph - N/A   Scattered Clouds
6:53 PM 52.0 °F - 33.1 °F 49% 30.12 in 10.0 mi SE 9.2 mph - N/A   Mostly Cloudy
7:53 PM 50.0 °F - 33.8 °F 54% 30.10 in 10.0 mi SSE 6.9 mph - N/A   Mostly Cloudy
8:53 PM 50.0 °F - 34.0 °F 54% 30.12 in 10.0 mi SSE 6.9 mph - N/A   Mostly Cloudy
9:53 PM 48.9 °F - 33.1 °F 54% 30.13 in 10.0 mi SSE 6.9 mph - N/A   Mostly Cloudy
10:53 PM 46.9 °F - 33.1 °F 59% 30.12 in 10.0 mi SE 9.2 mph - N/A   Scattered Clouds
11:53 PM 46.9 °F - 33.1 °F 59% 30.12 in 10.0 mi SE 9.2 mph - N/A   Mostly Cloudy